Вернуться в каталог

STARLINK-38252

АктивенСвязьSSO
NORAD 100254·PAYLOAD·🇺🇸 United States

Запущен Aug 8, 2026 с Vandenberg Space Force Base

Loading…

Ближайшие Пролёты (ближайшие 24 часа)

TLE

СвежийSource: Space-Track

Эпоха: Sep 14, 2026, 20:55 UTC

1 A0254U 26181J   26257.87191307  .00292752  00000-0  18906-2 0  9990
2 A0254  97.2833 301.1779 0002211  82.3390 277.8126 15.75268601  7072

Отслеживайте STARLINK-38252 в реальном времени с AllMySat

Download on the App Store